Погода в Львовском

Россия / Калининградская область     54°24′10″N   21°57′12″E
темп.,
°C
ветер,
м/с
пор.,
м/с
влажн.,
%
обл.,
%
осадки,
мм/ч
давл.,
гПа
погр.,
м
11 мая, вт
вт1123:00+15ююв6167665 0.0 1016476
02:00+14ююв71679100 0.0 1016447
05:00+13ююв6148199 0.0 1016368
08:00+15ююв71576100 0.0 1017580
11:00+20ююв8136592 0.0 1017893
14:00+22ююв7116170 0.0 10161186
17:00+21юв712655 0.0 10151136
20:00+16юв715685 0.0 1015644
12 мая, ср
ср1223:00+14юв616615 0.0 1015560
02:00+13юв516695 0.0 1015494
05:00+12юв6167938 0.0 1015467
08:00+16юв6157549 0.0 1015635
11:00+20юв711655 0.0 10141204
14:00+21юв7106083 0.0 10141591
17:00+18вюв69590 0.0 10131269
20:00+13вюв49770 0.0 1013212
13 мая, чт
чт1323:00+10вюв310840 0.0 1013229
02:00+9юв368916 0.0 1012109
05:00+8вюв228698 0.0 101032
08:00+12всв2375100 0.0 1009222
11:00+10в0192100 1.3 1008183
14:00+11сз1292100 1.4 1006254
17:00+10ююз1196100 0.4 1005119
20:00+10ююв2496100 0.4 1004212
14 мая, пт
пт1423:00+9юв2696100 0.1 1004210
02:00+9в2498100 1.3 1004158
05:00+9в3698100 2.1 1003248
08:00+10вюв4592100 2.1 1003452
11:00+11вюв2383100 0.1 1003589
14:00+15всв226968 0.1 10031027
17:00+14в237964 0.3 1003366
20:00+12вюв228733 0.3 100438
15 мая, сб
сб1523:00+9ююв379540 0.0 1004136
02:00+8ю359629 0.0 100499
05:00+8ююз369829 0.0 1005142
08:00+11юз458872 0.0 1006479
11:00+13юз4580100 0.0 1007813
14:00+13зюз4573100 0.1 1008947
17:00+15з357094 0.0 10081170
20:00+11сз118623 0.1 100810